Theta_e
311 311 311 310 309 309 313 314 316 315 312 317 317 317 318 319 319 321 319 317 318 318 321 322 322 321 321 322 321 320 321 323 324 324 326 325 324 323 323 324 324 325 325 324 324
313 313 312 310 309 310 314 316 317 314 316 317 317 318 318 319 320 317 314 314 316 318 320 324 323 322 323 323 323 322 323 325 325 325 324 324 324 324 323 324 324 324 324 324 324
313 311 311 309 309 313 315 317 317 314 317 317 317 317 317 317 322 317 314 317 318 319 321 320 321 322 323 323 323 324 325 325 324 323 323 323 323 323 322 323 324 324 323 322 323
311 310 310 309 312 314 317 318 318 315 316 317 316 316 314 318 322 316 318 319 319 319 320 321 322 323 324 324 322 324 323 323 323 323 322 322 322 322 322 322 322 322 321 321 322
311 311 310 310 313 316 318 318 317 316 314 313 314 314 315 321 318 316 319 320 321 321 321 321 322 322 323 323 322 323 323 322 322 321 321 321 321 321 321 321 321 321 321 321 321
311 311 311 313 314 316 317 318 317 316 315 314 314 315 319 322 319 319 320 320 321 322 321 321 321 321 323 323 323 323 322 322 321 322 322 322 321 321 321 321 321 321 321 321 321
311 312 312 314 315 317 317 317 317 316 314 314 314 317 323 322 320 320 320 320 320 320 321 321 321 322 322 324 323 322 322 323 323 323 323 322 322 321 321 321 321 321 321 321 321
312 311 313 315 315 316 316 316 315 314 314 314 316 320 323 320 321 321 321 321 320 320 320 320 321 322 322 323 323 324 324 325 324 323 323 321 321 322 322 322 322 322 321 321 320
311 312 312 313 313 314 315 315 314 313 314 315 318 323 324 318 321 320 321 321 320 321 321 321 322 323 324 325 326 325 325 324 324 324 323 322 322 323 322 321 321 321 321 320 320
309 312 312 313 314 315 314 315 316 315 313 315 321 323 323 321 321 321 320 320 321 321 323 323 323 324 326 326 324 324 323 323 323 324 324 324 324 324 322 322 321 321 320 320 319
313 309 312 314 316 315 313 318 320 322 323 324 323 324 322 322 320 322 321 321 322 323 325 324 323 326 326 325 323 323 323 324 324 325 325 324 324 323 322 322 322 321 320 320 319
312 310 311 314 314 317 319 325 323 324 326 322 322 322 321 321 322 321 321 322 323 324 324 324 325 324 324 323 322 323 323 324 325 324 324 324 323 322 322 323 322 321 320 319 319
311 311 311 313 316 321 323 321 321 322 326 322 319 320 320 320 322 323 322 321 323 323 324 323 323 323 323 322 322 323 324 324 323 323 322 321 322 322 322 322 321 320 319 319 320
311 310 312 315 321 324 323 320 321 323 329 324 322 322 321 321 322 322 322 321 322 323 323 322 323 323 323 323 322 323 323 321 321 321 321 321 322 323 323 323 322 320 320 319 320
310 310 314 324 323 324 325 320 322 324 337 324 323 321 321 321 323 323 322 322 323 324 323 323 323 323 323 322 322 322 320 320 320 321 322 322 323 323 324 321 321 321 320 320 320
309 313 316 321 323 320 319 319 326 329 332 327 324 323 322 323 323 323 323 322 323 324 324 324 323 323 322 321 320 320 321 321 321 323 326 323 323 322 322 322 321 321 320 319 319
316 313 316 322 323 321 321 320 329 331 329 327 325 324 324 325 325 324 324 324 325 326 325 323 323 323 322 322 321 321 321 326 323 326 324 322 322 322 322 321 322 321 319 319 319
318 318 322 321 321 322 322 324 330 328 326 324 324 323 324 324 325 324 323 325 325 323 323 323 323 322 322 321 320 320 320 324 325 326 323 321 320 319 322 320 321 321 321 321 322
318 323 324 322 321 323 325 330 330 328 325 324 323 324 325 325 324 324 324 324 324 322 323 322 321 321 321 320 319 319 320 320 323 322 323 322 321 321 322 321 320 320 320 321 321
320 328 325 320 321 325 331 332 328 324 323 323 324 325 325 325 324 324 324 323 322 321 320 321 323 321 321 319 319 320 321 323 325 325 324 321 322 321 322 321 320 319 319 320 321
325 329 321 319 321 326 333 329 325 322 321 323 324 324 324 324 324 324 323 323 321 320 319 319 322 321 321 321 320 319 320 321 323 322 326 325 320 321 322 321 321 319 319 319 319
325 326 320 319 325 327 327 325 321 322 321 321 321 323 323 323 322 323 322 323 320 319 319 319 321 322 320 319 319 319 319 320 327 323 324 325 324 320 320 319 318 318 318 317 317
324 322 321 320 326 326 324 322 320 320 321 321 321 321 321 321 322 321 321 319 318 318 319 320 322 324 320 320 320 320 320 320 322 323 324 323 321 320 319 316 315 316 317 316 317
321 324 322 321 320 322 323 323 321 318 317 318 319 319 320 321 321 321 320 319 317 316 316 316 318 319 322 321 320 319 318 317 320 324 320 321 320 318 317 317 316 315 316 315 314
322 322 318 324 322 320 320 322 320 320 318 317 318 320 320 319 319 319 318 318 317 317 317 319 321 321 320 318 317 318 317 316 317 317 320 317 315 315 315 316 315 315 313 312 312
318 318 318 320 319 320 316 322 318 318 317 318 319 319 318 318 317 318 318 318 318 318 319 320 321 320 319 318 318 316 316 317 317 316 315 315 314 316 315 314 314 313 312 312 312
314 316 318 319 320 320 320 317 316 315 317 315 315 315 316 317 317 316 314 314 315 317 318 319 320 320 321 318 317 319 318 317 317 316 317 318 316 315 315 314 313 312 311 311 310
Wind_Speed
5 6 5 4 3 8 11 11 8 6 9 14 14 14 11 8 3 6 5 2 4 5 4 3 4 7 8 6 8 8 11 8 10 7 8 11 5 8 5 8 2 9 10 9 6
6 5 4 3 6 12 12 10 8 7 12 13 12 9 5 1 3 6 4 4 3 4 5 10 12 6 13 9 6 9 9 8 10 11 9 7 3 2 1 9 9 8 5 4 5
6 5 4 5 11 14 13 10 9 8 10 11 10 6 2 7 8 7 9 12 8 6 6 9 2 8 6 4 1 11 6 7 6 10 7 12 7 12 5 12 11 9 9 4 4
6 5 6 9 13 14 11 10 9 8 7 7 7 6 2 7 1 3 13 13 10 10 6 4 6 11 8 2 3 6 2 7 5 5 4 9 11 5 10 7 6 6 2 5 3
5 5 7 11 14 13 10 8 7 6 4 5 7 7 7 4 7 4 10 13 10 9 7 4 7 6 8 2 4 10 4 2 1 5 8 9 8 10 9 13 7 4 4 9 11
4 5 8 11 12 10 8 6 5 4 3 4 5 5 9 9 2 1 5 5 8 9 7 8 7 8 6 6 7 8 6 5 6 8 4 6 11 11 13 13 8 7 10 12 13
3 5 7 9 9 8 7 5 3 2 3 5 4 7 10 6 3 1 3 4 6 7 8 7 7 11 6 7 1 10 8 13 12 9 2 2 10 17 21 16 8 7 13 16 15
2 4 6 7 7 6 5 4 2 2 3 5 5 6 2 3 3 2 3 5 4 6 6 9 7 7 5 6 10 12 14 11 12 13 8 4 12 11 5 10 10 16 17 18 17
3 5 6 6 6 5 4 4 4 4 4 6 6 9 4 3 4 2 3 5 8 8 7 9 7 6 10 14 14 11 8 8 5 6 5 10 14 13 14 17 16 16 18 19 21
2 6 8 7 5 3 2 3 5 5 3 6 11 9 9 5 5 2 2 5 9 10 13 11 8 10 13 6 9 17 15 13 13 13 7 13 15 13 18 19 19 18 21 20 23
2 5 8 7 4 2 3 3 4 4 13 11 6 7 6 4 4 3 3 7 5 11 10 4 9 11 12 9 10 12 14 15 16 15 15 15 16 16 20 23 23 22 20 19 6
1 3 7 7 3 2 3 7 5 7 7 14 10 5 2 4 5 5 4 8 10 11 13 11 12 8 7 8 12 14 14 17 16 16 15 16 20 21 21 24 27 20 11 7 10
3 3 7 6 5 3 1 6 7 6 7 7 10 12 8 8 5 3 5 10 13 11 11 12 15 15 6 11 13 14 16 16 16 18 18 20 23 20 18 21 12 6 5 8 8
5 5 8 8 2 3 4 6 6 4 5 13 8 6 6 5 5 2 4 8 12 14 14 8 16 5 9 12 14 14 16 17 17 17 16 17 18 20 20 19 11 15 17 15 18
6 7 9 2 1 5 4 7 4 2 5 10 11 6 5 8 3 8 3 6 10 14 12 16 15 13 10 11 11 14 15 15 18 19 20 20 13 18 19 3 11 12 9 7 4
7 7 7 3 3 6 6 7 2 6 2 7 7 8 11 12 5 3 7 9 12 9 15 17 12 11 5 10 12 8 14 18 19 17 15 20 14 15 10 14 18 13 9 6 8
7 5 2 4 8 8 6 4 6 7 2 6 4 5 8 5 1 3 8 11 7 9 12 18 11 7 4 8 13 11 14 9 6 9 13 19 19 14 20 20 15 13 14 14 18
3 4 3 3 8 8 3 6 6 2 5 5 4 6 8 1 5 2 8 12 8 3 10 9 8 14 11 7 11 14 13 8 16 13 17 19 13 15 13 23 20 30 35 24 21
5 4 3 5 8 5 8 8 4 12 8 7 11 11 13 8 4 6 9 8 7 8 5 8 7 24 17 11 9 11 11 14 10 14 15 14 20 19 10 16 24 30 31 32 27
2 8 5 5 8 3 7 13 2 7 8 6 10 7 9 10 8 9 8 6 1 4 3 6 15 12 15 8 14 18 14 10 6 7 16 16 21 16 12 16 3 6 17 10 12
4 7 2 5 4 8 9 5 5 6 8 6 10 10 10 10 8 8 6 4 6 4 11 12 9 12 15 16 18 16 13 12 13 11 11 13 12 16 23 24 19 19 25 21 19
6 5 4 6 7 9 7 7 5 8 3 3 5 7 7 9 7 10 10 6 7 7 10 10 6 11 18 23 20 14 12 13 4 12 14 14 19 19 19 23 20 24 17 15 18
9 7 3 6 5 6 6 0 3 6 5 7 6 3 8 7 5 7 7 4 5 4 6 8 4 8 9 8 15 18 16 19 15 12 18 16 15 19 25 20 16 16 20 18 13
7 4 2 4 4 6 6 1 1 6 4 5 7 6 7 8 8 7 10 9 2 6 9 3 7 10 11 18 19 20 23 23 21 8 15 15 19 21 14 18 25 23 16 22 28
4 4 4 4 6 7 2 3 5 1 1 4 5 4 4 5 12 13 10 15 17 1 4 4 11 15 17 21 23 24 25 24 19 20 15 17 18 19 20 21 27 26 30 32 34
7 7 10 12 4 6 4 3 4 5 4 4 2 10 9 9 11 15 14 12 8 11 10 9 14 18 21 23 21 23 23 16 14 12 10 16 19 20 28 29 27 31 33 35 36
10 5 7 6 6 6 6 4 3 2 2 4 6 8 10 11 13 17 19 20 19 15 13 12 11 13 20 22 22 19 10 16 14 17 15 15 19 22 20 25 27 28 36 37 37
Wind_Direction
37 29 26 40 85 127 130 122 107 95 121 131 127 129 130 127 87 24 8 64 103 102 84 91 244 236 232 220 238 255 271 261 254 75 99 130 210 162 252 278 16 359 27 52 59
20 19 29 65 117 132 129 117 100 106 133 138 142 148 159 20 15 47 46 62 110 37 336 263 231 227 237 230 220 226 251 337 37 49 22 53 311 155 283 230 170 152 93 80 62
17 27 68 103 130 133 127 112 100 118 144 145 153 173 174 341 311 54 67 69 58 18 326 323 269 283 235 315 186 256 3 55 83 37 8 335 323 265 253 274 234 149 109 88 48
33 62 98 122 136 136 126 113 102 105 161 163 167 168 269 333 20 90 68 51 32 8 316 246 248 253 303 300 298 282 13 351 74 82 294 263 265 297 268 265 60 59 22 310 279
52 87 113 132 142 141 132 120 108 102 131 192 203 233 290 262 86 93 25 13 8 2 6 340 320 316 296 32 279 279 116 217 245 236 227 285 277 258 298 259 143 257 251 273 262
71 102 127 139 150 151 146 137 126 113 110 155 200 246 288 250 115 45 16 10 18 17 20 8 7 337 318 320 295 6 289 245 202 213 271 234 264 247 234 262 189 235 262 261 266
95 124 137 149 159 161 160 157 149 147 147 147 241 290 287 192 146 284 7 8 6 8 6 5 333 305 341 256 208 283 258 216 213 204 244 292 265 251 249 241 205 224 269 268 258
162 157 157 160 168 176 183 192 211 227 219 219 228 292 347 139 212 259 288 283 337 335 342 334 327 303 296 322 236 234 228 271 166 188 172 168 274 289 350 195 213 240 257 263 266
208 190 180 172 172 187 203 224 253 255 237 202 235 260 244 190 206 203 307 312 317 303 296 306 303 306 271 246 244 210 312 323 307 206 166 217 272 272 285 279 255 243 239 253 260
267 203 194 187 180 185 212 251 267 239 244 212 260 279 186 208 157 225 305 313 314 313 292 239 266 262 249 292 342 326 329 322 309 310 251 260 283 299 286 286 283 273 263 258 260
298 219 200 194 191 216 212 311 250 222 215 249 144 282 121 139 191 228 315 320 291 283 267 312 306 296 8 15 334 310 298 297 297 293 290 290 292 285 285 282 272 271 270 268 278
344 211 199 194 198 157 180 244 348 313 265 227 257 250 133 209 220 220 317 288 325 302 309 271 255 15 348 320 305 292 282 281 291 310 316 306 298 294 279 267 262 249 262 300 275
37 152 169 165 150 147 265 311 315 308 267 174 209 209 206 214 259 58 336 328 306 303 304 318 306 325 356 306 290 283 290 300 314 315 297 286 279 285 301 297 258 194 244 274 285
49 119 142 145 190 272 221 332 326 283 270 159 189 177 203 240 225 200 328 328 304 306 318 309 288 325 284 280 302 300 336 332 314 306 295 319 296 287 276 260 247 204 216 225 234
59 124 143 46 27 297 309 323 295 266 272 155 171 132 191 237 69 141 311 318 308 323 309 290 305 331 310 304 355 306 320 309 294 282 281 279 270 282 289 246 264 246 246 260 261
65 122 134 15 328 333 321 300 308 239 244 135 143 212 218 209 202 312 294 266 276 287 287 269 257 254 241 327 301 275 284 300 294 281 269 270 267 280 304 314 309 289 250 255 282
57 108 16 24 338 322 311 254 235 247 148 141 228 162 249 276 165 240 307 302 291 329 324 327 296 93 47 320 317 319 327 314 301 318 296 317 323 318 323 309 349 12 1 330 313
316 354 320 357 326 317 304 241 259 331 52 49 305 299 254 23 303 278 286 290 133 19 323 315 315 25 14 303 310 297 288 276 293 302 304 316 293 293 10 12 2 5 3 12 9
278 278 331 300 334 328 270 239 327 7 17 354 318 259 270 160 183 286 274 323 35 21 333 321 297 334 322 314 336 313 299 294 302 288 284 286 289 286 47 48 3 352 337 339 342
283 277 237 335 310 315 253 259 49 38 344 322 295 318 318 331 315 337 325 83 68 78 14 300 305 303 294 309 270 259 251 280 276 289 275 285 304 294 324 1 90 333 286 316 324
326 262 47 333 298 261 251 29 74 76 4 339 337 323 315 316 332 309 300 32 93 335 349 311 280 288 299 285 303 318 302 264 272 281 287 295 284 324 330 334 336 345 352 343 331
290 285 357 339 266 233 38 15 356 349 342 310 310 314 320 340 314 300 302 4 61 1 321 323 296 294 300 293 282 266 300 302 4 296 285 296 281 304 324 328 348 351 0 354 312
310 305 8 343 299 353 78 101 10 337 20 337 323 23 343 319 316 299 309 57 46 6 354 354 317 316 309 319 350 320 304 300 291 277 265 285 298 328 311 26 340 331 336 333 303
306 314 90 45 31 336 20 269 207 113 298 314 306 312 289 301 290 280 288 305 328 282 176 182 264 267 278 292 317 305 295 292 288 294 292 289 308 295 347 352 340 350 349 334 325
323 49 354 329 48 335 330 340 307 277 13 275 290 214 347 322 323 294 316 325 314 273 197 220 272 280 296 301 294 301 307 310 337 323 325 329 321 334 349 340 334 337 335 329 320
357 346 342 287 319 287 160 142 309 35 323 327 288 333 334 305 294 298 315 318 305 314 325 311 296 304 296 295 309 303 310 341 330 311 300 337 321 357 340 337 335 335 330 320 314
352 336 299 304 232 257 67 47 15 331 272 307 328 314 307 328 327 299 290 284 274 284 287 289 289 305 296 303 308 304 346 321 333 340 354 326 339 352 336 325 323 327 322 312 312